Weather History for Jesup, GA

Change the Weather History Date:

Thursday, November 1, 2012

  Actual Average (KLHW) Record (KLHW)
Temperature  
Mean Temperature 55 °F -  
Max Temperature 69 °F 75 °F 84 °F (2004)
Min Temperature 41 °F 54 °F 31 °F (1993)
Degree Days  
Heating Degree Days 10    
Growing Degree Days 5 (Base 50)    
Moisture  
Dew Point 38 °F    
Average Humidity 63    
Maximum Humidity 100    
Minimum Humidity 25    
Precipitation  
Precipitation 0.00 in - - ()
Sea Level Pressure  
Sea Level Pressure 29.95 in    
Wind  
Wind Speed 5 mph (WNW)    
Max Wind Speed 20 mph    
Max Gust Speed 25 mph    
Visibility 10 miles    
Events      
Averages and records for this station are not official NWS values.
T = Trace of Precipitation, MM = Missing Value Source: NWS Daily Summary

Daily Weather History Graph

Daily Weather History Graph

Search for Another Location

Airport:

Trip Planner

Search our weather history database for the weather conditions in past years. The results will help you decide how hot, cold, wet, or windy it might be!

Date:

Astronomy

Nov. 01, 2012 Rise Set
Actual Time 7:43 AM EDT 6:37 PM EDT
Civil Twilight 7:18 AM EDT 7:02 PM EDT
Nautical Twilight 6:49 AM EDT 7:31 PM EDT
Astronomical Twilight 6:21 AM EDT 8:00 PM EDT
Moon 8:41 PM EDT (11/1) 10:07 AM EDT (11/1)
Length of Visible Light 11h 44m
Length of Day
10h 53m
Waning Gibbous, 93% of the Moon is Illuminated
Nov 1
Waning Gibbous
Nov 6
Last Quarter
Nov 13
New
Nov 20
First Quarter
Nov 28
Full

Hourly Weather History & Observations

Time (EDT) Temp. Windchill Dew Point Humidity Pressure Visibility Wind Dir Wind Speed Gust Speed Precip Events Conditions
12:15 AM 44.6 °F - 44.6 °F 100% 29.91 in 10.0 mi Calm Calm - N/A   Clear
12:35 AM 44.6 °F 43.1 °F 44.6 °F 100% 29.91 in 10.0 mi SSW 3.5 mph - N/A   Clear
12:55 AM 44.6 °F 42.2 °F 44.6 °F 100% 29.92 in 10.0 mi SW 4.6 mph - N/A   Clear
1:15 AM 46.4 °F - 44.6 °F 93% 29.92 in 10.0 mi Calm Calm - N/A   Clear
1:35 AM 44.6 °F 43.1 °F 44.6 °F 100% 29.92 in 10.0 mi SW 3.5 mph - N/A   Clear
2:15 AM 46.4 °F - 44.6 °F 93% 29.92 in 10.0 mi Calm Calm - N/A   Clear
2:35 AM 46.4 °F - 44.6 °F 93% 29.92 in 10.0 mi Calm Calm - N/A   Clear
3:15 AM 42.8 °F 40.1 °F 42.8 °F 100% 29.92 in 10.0 mi WSW 4.6 mph - N/A   Clear
3:35 AM 44.6 °F 42.2 °F 44.6 °F 100% 29.93 in 10.0 mi West 4.6 mph - N/A   Clear
3:55 AM 42.8 °F 41.1 °F 42.8 °F 100% 29.93 in 10.0 mi WSW 3.5 mph - N/A   Clear
4:15 AM 42.8 °F - 42.8 °F 100% 29.93 in 10.0 mi Calm Calm - N/A   Clear
4:35 AM 42.8 °F 40.1 °F 42.8 °F 100% 29.93 in 10.0 mi West 4.6 mph - N/A   Clear
4:55 AM 42.8 °F 41.1 °F 42.8 °F 100% 29.93 in 10.0 mi West 3.5 mph - N/A   Clear
5:15 AM 46.4 °F 45.2 °F 46.4 °F 100% 29.94 in 10.0 mi West 3.5 mph - N/A   Clear
5:35 AM 42.8 °F - 42.8 °F 100% 29.94 in 10.0 mi Calm Calm - N/A   Clear
5:55 AM 42.8 °F 41.1 °F 42.8 °F 100% 29.94 in 10.0 mi West 3.5 mph - N/A   Clear
6:15 AM 44.6 °F - 44.6 °F 100% 29.94 in 10.0 mi Calm Calm - N/A   Clear
6:35 AM 46.4 °F - 46.4 °F 100% 29.95 in 10.0 mi Calm Calm - N/A   Clear
7:15 AM 44.6 °F 43.1 °F 44.6 °F 100% 29.96 in 10.0 mi West 3.5 mph - N/A   Clear
7:35 AM 41.0 °F 38.0 °F 41.0 °F 100% 29.97 in 7.0 mi West 4.6 mph - N/A   Clear
8:35 AM 46.4 °F 45.2 °F 46.4 °F 100% 29.97 in 10.0 mi WNW 3.5 mph - N/A   Clear
8:55 AM 50.0 °F - 46.4 °F 87% 29.98 in 10.0 mi Calm Calm - N/A   Clear
9:35 AM 53.6 °F - 44.6 °F 72% 29.99 in 10.0 mi NW 5.8 mph - N/A   Clear
9:55 AM 55.4 °F - 42.8 °F 63% 29.99 in 10.0 mi NW 8.1 mph - N/A   Clear
10:15 AM 57.2 °F - 39.2 °F 51% 29.99 in 10.0 mi NW 9.2 mph - N/A   Clear
10:35 AM 59.0 °F - 37.4 °F 45% 29.99 in 10.0 mi NNW 12.7 mph 17.3 mph N/A   Clear
10:55 AM 60.8 °F - 35.6 °F 39% 30.00 in 10.0 mi NW 10.4 mph - N/A   Clear
11:15 AM 60.8 °F - 33.8 °F 36% 29.99 in 10.0 mi NW 13.8 mph 18.4 mph N/A   Clear
11:35 AM 62.6 °F - 33.8 °F 34% 29.99 in 10.0 mi NNW 13.8 mph 18.4 mph N/A   Clear
12:15 PM 64.4 °F - 33.8 °F 32% 29.98 in 10.0 mi WNW 13.8 mph 19.6 mph N/A   Clear
12:35 PM 66.2 °F - 32.0 °F 28% 29.97 in 10.0 mi WNW 13.8 mph 24.2 mph N/A   Clear
12:55 PM 66.2 °F - 32.0 °F 28% 29.95 in 10.0 mi NW 18.4 mph 25.3 mph N/A   Clear
1:15 PM 68.0 °F - 33.8 °F 28% 29.94 in 10.0 mi NW 13.8 mph 21.9 mph N/A   Clear
1:35 PM 68.0 °F - 33.8 °F 28% 29.93 in 10.0 mi WNW 15.0 mph 20.7 mph N/A   Clear
2:15 PM 68.0 °F - 33.8 °F 28% 29.91 in 10.0 mi NW 19.6 mph 24.2 mph N/A   Clear
2:35 PM 69.8 °F - 32.0 °F 25% 29.91 in 10.0 mi WNW 15.0 mph 25.3 mph N/A   Clear
2:55 PM 69.8 °F - 32.0 °F 25% 29.90 in 10.0 mi WNW 16.1 mph 25.3 mph N/A   Clear
3:15 PM 69.8 °F - 32.0 °F 25% 29.90 in 10.0 mi WNW 15.0 mph 24.2 mph N/A   Clear
3:35 PM 69.8 °F - 33.8 °F 27% 29.90 in 10.0 mi NW 12.7 mph 19.6 mph N/A   Clear
4:15 PM 69.8 °F - 32.0 °F 25% 29.89 in 10.0 mi West 12.7 mph 19.6 mph N/A   Clear
4:35 PM 69.8 °F - 32.0 °F 25% 29.89 in 10.0 mi NW 15.0 mph 21.9 mph N/A   Clear
5:15 PM 69.8 °F - 32.0 °F 25% 29.89 in 10.0 mi WNW 11.5 mph 23.0 mph N/A   Clear
5:35 PM 69.8 °F - 32.0 °F 25% 29.90 in 10.0 mi WNW 8.1 mph 11.5 mph N/A   Clear
5:55 PM 68.0 °F - 33.8 °F 28% 29.90 in 10.0 mi WNW 5.8 mph - N/A   Clear
6:15 PM 64.4 °F - 33.8 °F 32% 29.91 in 10.0 mi West 4.6 mph - N/A   Clear
6:35 PM 62.6 °F - 33.8 °F 34% 29.92 in 10.0 mi West 5.8 mph - N/A   Clear
7:15 PM 53.6 °F - 35.6 °F 51% 29.93 in 10.0 mi West 4.6 mph - N/A   Clear
7:35 PM 53.6 °F - 33.8 °F 47% 29.94 in 10.0 mi Calm Calm - N/A   Clear
7:55 PM 53.6 °F - 33.8 °F 47% 29.94 in 10.0 mi Calm Calm - N/A   Clear
8:15 PM 51.8 °F - 35.6 °F 54% 29.95 in 10.0 mi Calm Calm - N/A   Clear
8:35 PM 53.6 °F - 33.8 °F 47% 29.95 in 10.0 mi Calm Calm - N/A   Clear
8:55 PM 48.2 °F - 35.6 °F 62% 29.96 in 10.0 mi West 3.5 mph - N/A   Clear
9:15 PM 50.0 °F - 35.6 °F 58% 29.97 in 10.0 mi West 3.5 mph - N/A   Clear
9:35 PM 50.0 °F - 35.6 °F 58% 29.98 in 10.0 mi West 3.5 mph - N/A   Clear
9:55 PM 50.0 °F - 35.6 °F 58% 29.98 in 10.0 mi WNW 3.5 mph - N/A   Clear
10:15 PM 48.2 °F - 35.6 °F 62% 29.98 in 10.0 mi West 4.6 mph - N/A   Clear
10:35 PM 51.8 °F - 35.6 °F 54% 29.99 in 10.0 mi West 4.6 mph - N/A   Clear
10:55 PM 50.0 °F - 35.6 °F 58% 30.00 in 10.0 mi WNW 4.6 mph - N/A   Clear
11:15 PM 50.0 °F - 35.6 °F 58% 29.99 in 10.0 mi West 5.8 mph - N/A   Clear
11:35 PM 42.8 °F 41.1 °F 37.4 °F 81% 29.99 in 10.0 mi WNW 3.5 mph - N/A   Clear
11:55 PM 46.4 °F 43.5 °F 35.6 °F 66% 29.99 in 10.0 mi NW 5.8 mph - N/A   Clear